Weather History for KDRM - April, 2013

Change the Weather History Date:

Saturday, April 6, 2013

  Actual Average (KCIU) Record (KCIU)
Temperature  
Mean Temperature 25 °F -  
Max Temperature 34 °F 43 °F 55 °F (2008)
Min Temperature 16 °F 24 °F 1 °F (2003)
Degree Days  
Heating Degree Days 40    
Moisture  
Dew Point 24 °F    
Average Humidity 88    
Maximum Humidity 100    
Minimum Humidity 64    
Precipitation  
Precipitation 0.00 in - - ()
Sea Level Pressure  
Sea Level Pressure 30.04 in    
Wind  
Wind Speed 5 mph (SE)    
Max Wind Speed 21 mph    
Max Gust Speed 31 mph    
Visibility 7 miles    
Events Rain , Snow    
Averages and records for this station are not official NWS values.
T = Trace of Precipitation, MM = Missing Value Source: NWS Daily Summary

Daily Weather History Graph

Daily Weather History Graph

Search for Another Location

Airport or City:

Trip Planner

Search our weather history database for the weather conditions in past years. The results will help you decide how hot, cold, wet, or windy it might be!

Date:

Astronomy

Apr. 06, 2013 Rise Set
Actual Time 7:04 AM EDT 8:10 PM EDT
Civil Twilight 6:34 AM EDT 8:41 PM EDT
Nautical Twilight 5:57 AM EDT 9:17 PM EDT
Astronomical Twilight 5:19 AM EDT 9:56 PM EDT
Moon 4:59 AM EDT (4/6) 4:27 PM EDT (4/6)
Length of Visible Light 14h 06m
Length of Day
13h 05m
Waning Crescent, 15% of the Moon is Illuminated
Apr 6
Waning Crescent
Apr 10
New
Apr 18
First Quarter
Apr 25
Full
May 2
Last Quarter

Hourly Weather History & Observations

Time (EDT) Temp. Windchill Dew Point Humidity Pressure Visibility Wind Dir Wind Speed Gust Speed Precip Events Conditions
12:14 AM 23.4 °F - 18.3 °F 81% 30.19 in 10.0 mi Calm Calm - N/A   Clear
12:35 AM 23.5 °F - 18.3 °F 80% 30.20 in 10.0 mi Calm Calm - N/A   Clear
12:55 AM 23.9 °F - 18.5 °F 80% 30.20 in 10.0 mi Calm Calm - N/A   Clear
1:15 AM 22.6 °F - 18.1 °F 83% 30.20 in 10.0 mi Calm Calm - N/A   Clear
1:35 AM 23.0 °F - 18.1 °F 82% 30.20 in 10.0 mi Calm Calm - N/A   Clear
1:55 AM 22.1 °F - 17.6 °F 83% 30.20 in 10.0 mi Calm Calm - N/A   Clear
2:15 AM 21.9 °F - 17.8 °F 84% 30.20 in 10.0 mi Calm Calm - N/A   Clear
2:35 AM 20.8 °F - 17.6 °F 87% 30.20 in 10.0 mi Calm Calm - N/A   Clear
2:55 AM 19.2 °F - 16.9 °F 91% 30.20 in 10.0 mi Calm Calm - N/A   Clear
3:15 AM 18.9 °F - 16.7 °F 91% 30.20 in 10.0 mi Calm Calm - N/A   Clear
3:35 AM 18.5 °F - 16.7 °F 93% 30.20 in 10.0 mi Calm Calm - N/A   Clear
3:55 AM 17.6 °F - 16.3 °F 95% 30.20 in 10.0 mi Calm Calm - N/A   Clear
4:15 AM 17.2 °F - 15.6 °F 93% 30.20 in 10.0 mi Calm Calm - N/A   Clear
4:35 AM 17.4 °F - 16.3 °F 96% 30.20 in 10.0 mi Calm Calm - N/A   Clear
4:55 AM 17.6 °F - 16.5 °F 96% 30.20 in 10.0 mi Calm Calm - N/A   Clear
5:15 AM 16.9 °F - 15.8 °F 96% 30.20 in 10.0 mi Calm Calm - N/A   Clear
5:34 AM 17.8 °F - 16.7 °F 96% 30.20 in 10.0 mi Calm Calm - N/A   Mostly Cloudy
5:55 AM 17.6 °F - 16.5 °F 96% 30.20 in 10.0 mi Calm Calm - N/A   Overcast
6:15 AM 18.3 °F - 17.1 °F 95% 30.20 in 10.0 mi Calm Calm - N/A   Overcast
6:34 AM 17.8 °F - 16.7 °F 96% 30.20 in 10.0 mi Calm Calm - N/A   Scattered Clouds
6:55 AM 17.6 °F - 16.2 °F 94% 30.20 in 10.0 mi Calm Calm - N/A   Scattered Clouds
7:15 AM 19.8 °F - 17.4 °F 91% 30.20 in 10.0 mi Calm Calm - N/A   Mostly Cloudy
7:35 AM 22.1 °F 17.4 °F 17.8 °F 83% 30.20 in 10.0 mi ESE 3.5 mph - N/A   Overcast
7:55 AM 23.5 °F 19.1 °F 17.4 °F 77% 30.19 in 10.0 mi ESE 3.5 mph - N/A   Scattered Clouds
8:15 AM 24.4 °F 20.1 °F 17.8 °F 76% 30.19 in 10.0 mi ESE 3.5 mph - N/A   Scattered Clouds
8:35 AM 25.3 °F 21.1 °F 18.5 °F 75% 30.19 in 10.0 mi ESE 3.5 mph - N/A   Overcast
8:55 AM 27.0 °F 23.0 °F 19.2 °F 73% 30.18 in 10.0 mi ESE 3.5 mph - N/A   Overcast
9:15 AM 28.4 °F 23.3 °F 20.1 °F 71% 30.18 in 10.0 mi SSE 4.6 mph - N/A   Overcast
9:35 AM 30.2 °F 24.3 °F 20.5 °F 67% 30.18 in 10.0 mi SSE 5.8 mph - N/A   Overcast
9:55 AM 30.2 °F 22.6 °F 20.8 °F 68% 30.18 in 10.0 mi SSE 8.1 mph - N/A   Overcast
10:14 AM 30.7 °F 23.3 °F 21.9 °F 70% 30.17 in 10.0 mi SSE 8.1 mph - N/A   Overcast
10:35 AM 31.1 °F 23.7 °F 20.3 °F 64% 30.17 in 10.0 mi SE 8.1 mph - N/A   Overcast
10:55 AM 31.3 °F 23.9 °F 20.7 °F 65% 30.16 in 10.0 mi SE 8.1 mph 17.3 mph N/A   Overcast
11:14 AM 31.5 °F 22.3 °F 21.9 °F 68% 30.16 in 10.0 mi SE 11.5 mph 16.1 mph N/A   Overcast
11:35 AM 32.0 °F 22.1 °F 22.8 °F 69% 30.15 in 10.0 mi SE 13.8 mph 18.4 mph N/A   Overcast
11:55 AM 32.0 °F 24.2 °F 23.9 °F 72% 30.15 in 10.0 mi SE 9.2 mph 17.3 mph N/A   Overcast
12:15 PM 32.0 °F 23.0 °F 26.2 °F 79% 30.14 in 2.5 mi SSE 11.5 mph 18.4 mph N/A Snow Light Snow
12:35 PM 31.8 °F 23.9 °F 27.5 °F 84% 30.13 in 2.5 mi SSE 9.2 mph 20.7 mph N/A Snow Light Snow
12:54 PM 31.6 °F 22.6 °F 28.4 °F 88% 30.12 in 2.0 mi SSE 11.5 mph 18.4 mph N/A Snow Light Snow
1:15 PM 32.0 °F 21.6 °F 28.9 °F 88% 30.10 in 1.5 mi SE 15.0 mph 20.7 mph N/A Snow Light Snow
1:35 PM 32.0 °F 22.1 °F 29.1 °F 89% 30.09 in 1.2 mi SE 13.8 mph 19.6 mph N/A Snow Light Snow
1:55 PM 31.8 °F 23.9 °F 29.3 °F 90% 30.08 in 1.5 mi SE 9.2 mph 18.4 mph N/A Snow Light Snow
2:15 PM 31.6 °F 21.2 °F 29.8 °F 93% 30.07 in 0.8 mi SE 15.0 mph 18.4 mph N/A Snow Light Snow
2:35 PM 31.5 °F 21.8 °F 30.0 °F 94% 30.05 in 0.8 mi SSE 12.7 mph 21.9 mph N/A Snow Light Snow
2:55 PM 31.3 °F 21.6 °F 30.2 °F 96% 30.04 in 0.5 mi SE 12.7 mph 23.0 mph N/A Snow Light Snow
3:15 PM 31.1 °F 20.1 °F 30.6 °F 98% 30.03 in 0.5 mi SSE 16.1 mph 24.2 mph N/A Snow Light Snow
3:34 PM 31.5 °F 20.5 °F 30.9 °F 98% 30.01 in 0.5 mi SE 16.1 mph 25.3 mph N/A Snow Snow
3:55 PM 31.5 °F 21.8 °F 30.9 °F 98% 29.99 in 0.5 mi SE 12.7 mph 25.3 mph N/A Snow Snow
4:15 PM 31.8 °F 21.0 °F 31.1 °F 97% 29.97 in 1.0 mi SE 16.1 mph 28.8 mph N/A Snow Light Snow
4:34 PM 32.0 °F 23.0 °F 31.5 °F 98% 29.94 in 0.5 mi SE 11.5 mph 24.2 mph N/A Snow Snow
4:55 PM 32.0 °F 22.5 °F 31.5 °F 98% 29.93 in 0.5 mi SSE 12.7 mph 25.3 mph N/A Snow Light Snow
5:15 PM 32.0 °F 21.6 °F 31.8 °F 99% 29.92 in 0.8 mi SE 15.0 mph 24.2 mph N/A Snow Light Snow
5:35 PM 32.0 °F 20.5 °F 31.8 °F 99% 29.90 in 0.5 mi SSE 18.4 mph 27.6 mph N/A Snow Light Snow
5:55 PM 32.0 °F 21.6 °F 31.8 °F 99% 29.89 in 1.5 mi SE 15.0 mph 26.5 mph N/A Snow Light Snow
6:15 PM 32.0 °F 20.1 °F 32.0 °F 100% 29.87 in 4.0 mi SE 19.6 mph 29.9 mph N/A   Overcast
6:35 PM 32.0 °F 19.8 °F 31.1 °F 96% 29.83 in 5.0 mi ESE 20.7 mph 29.9 mph N/A   Overcast
6:54 PM 32.0 °F 20.1 °F 31.1 °F 96% 29.82 in 10.0 mi SE 19.6 mph 28.8 mph N/A   Overcast
7:15 PM 32.0 °F 20.8 °F 31.1 °F 96% 29.84 in 10.0 mi SE 17.3 mph 24.2 mph N/A   Overcast
7:35 PM 32.0 °F 22.5 °F 31.3 °F 97% 29.86 in 7.0 mi SSE 12.7 mph 27.6 mph N/A   Overcast
7:55 PM 32.4 °F 22.5 °F 31.5 °F 96% 29.85 in 7.0 mi SE 13.8 mph 24.2 mph N/A Snow Light Snow
8:15 PM 32.4 °F 23.0 °F 31.1 °F 95% 29.83 in 4.0 mi SE 12.7 mph 24.2 mph N/A Snow Light Snow
8:35 PM 32.0 °F 22.5 °F 31.3 °F 97% 29.80 in 1.2 mi SE 12.7 mph 24.2 mph N/A Snow Light Snow
8:55 PM 32.4 °F 22.1 °F 30.2 °F 92% 29.78 in 7.0 mi SE 15.0 mph 26.5 mph N/A Snow Light Snow
9:15 PM 32.9 °F 22.4 °F 30.0 °F 89% 29.78 in 10.0 mi SE 16.1 mph 24.2 mph N/A   Overcast
9:35 PM 33.1 °F 22.6 °F 29.3 °F 86% 29.78 in 10.0 mi SE 16.1 mph 27.6 mph N/A   Overcast
9:55 PM 32.9 °F 21.6 °F 30.2 °F 90% 29.77 in 10.0 mi SE 18.4 mph 26.5 mph N/A Snow Light Snow
10:15 PM 33.1 °F 23.4 °F 31.1 °F 92% 29.74 in 10.0 mi SE 13.8 mph 26.5 mph N/A   Overcast
10:34 PM 33.3 °F 22.8 °F 32.0 °F 95% 29.72 in 7.0 mi SE 16.1 mph 27.6 mph N/A   Overcast
10:55 PM 33.8 °F 22.5 °F 31.8 °F 92% 29.70 in 7.0 mi SE 19.6 mph 26.5 mph N/A   Overcast
11:15 PM 33.8 °F 22.8 °F 31.8 °F 92% 29.68 in 7.0 mi SE 18.4 mph 29.9 mph N/A Rain Light Rain
11:34 PM 34.2 °F 23.3 °F 31.6 °F 90% 29.67 in 7.0 mi SE 18.4 mph 29.9 mph N/A Rain Light Rain
11:55 PM 34.0 °F 23.8 °F 31.8 °F 92% 29.65 in 10.0 mi SSE 16.1 mph 31.1 mph N/A   Drizzle